User: anonymous   Login
Location: Unspecified
(0.0000°N, 0.0000°E)
Time: 11:36:48
(UTC+00:00)
Language:

MetOp-A - Orbit

View from above orbital plane
View from above orbital plane
View from above satellite
View from above satellite

Ground track
Ground track

The orbit data is extracted from the following two-line orbital elements,

1 29499U 06044A   18351.18731647 -.00000011  00000-0  14704-4 0  9995
2 29499  98.6033  44.3249 0001725  69.2346 358.3787 14.21537369630994
Epoch (UTC): 17 December 2018 04:29:44
Eccentricity: 0.0001725
inclination: 98.6033°
perigee height: 819 km
apogee height: 821 km
right ascension of ascending node: 44.3249°
argument of perigee: 69.2346°
revolutions per day: 14.21537369
mean anomaly at epoch: 358.3787°
orbit number at epoch: 63099

The dashed part of the orbit path shows where the satellite is in the earth's shadow,  

DLR